SES-6

Last updated on Thu Oct 30 2025 00:02:49 GMT+0000 (Coordinated Universal Time)

1 39172U 13026A 25302.46301766 -.00000251 00000+0 00000+0 0 9996 2 39172 0.0238 326.0627 0002262 251.2084 306.9886 1.00272885 45414
UTC large
Height (km)
Speed (km/s)
/
Latitude / Longitude
Inclination (degrees)
Orbital Period (minutes)
Azimuth
Elevation
Range (km)
Doppler Factor

Next 0 passes for location: London (51.5072 / 0.1276)

Sorry there are no passes over London.